Regional Weather Roundup
Issued by NWS

Home | Current Version | Previous Version | Graphics & Text | Print | Product List | Glossary Off
Versions: 1 2 3 4 5 6 7 8 9 10 11 12 13 14 15 16 17 18 19 20 21 22 23 24 25 26 27 28 29 30 31 32 33 34 35 36 37 38 39 40 41 42 43 44 45 46 47 48 49 50

000
ASUS43 KLSX 280959
RWRMO

WEATHER SUMMARY FOR MISSOURI
NATIONAL WEATHER SERVICE SPRINGFIELD MO
400 AM CST WED JAN 28 2015

NOTE: "FAIR" INDICATES FEW OR NO CLOUDS BELOW 12,000 FEET WITH NO
       SIGNIFICANT WEATHER AND/OR OBSTRUCTIONS TO VISIBILITY.
       CURRENT SKY AND/OR WEATHER CONDITIONS ARE NOT AVAILABLE FOR
       CHILLICOTHE AND FARMINGTON.

MOZ001>031-035>038-043-044-053-054-281100-
...NORTHERN AND WESTERN MISSOURI...

CITY           SKY/WX    TMP DP  RH WIND       PRES   REMARKS
KANSAS CTY INT CLEAR     40  30  67 SE14      29.96F
KANSAS C DTWN  CLEAR     44  29  55 SE9       29.98F
LEE`S SUMMIT   CLEAR     42  29  59 SE8       29.99F
ST JOSEPH      CLEAR     40  30  67 SE10      29.97F
CHILLICOTHE      N/A     33  29  85 E10       30.06F WCI  25
KIRKSVILLE     CLEAR     28  27  96 SE12      30.12F FOG     WCI  18

$$
MOZ066>068-077>081-088>096-101>105-281100-
...SOUTHWEST MISSOURI...

CITY           SKY/WX    TMP DP  RH WIND       PRES   REMARKS
SPRINGFIELD    CLEAR     42  33  70 SE24      30.07S
JOPLIN         CLEAR     48  29  47 S9        30.03F

$$
MOZ032>034-039>042-045>050-055>058-069>072-281100-
...CENTRAL MISSOURI...

CITY           SKY/WX    TMP DP  RH WIND       PRES   REMARKS
COLUMBIA       CLEAR     31  28  89 SE12      30.12F WCI  22
JEFFERSON CITY CLEAR     34  29  82 E10       30.15F WCI  26
ROLLA          CLEAR     32  28  85 SE13      30.13S WCI  22
SEDALIA        CLEAR     36  29  75 SE12      30.06F WCI  28
OSAGE BEACH    CLEAR     37  30  75 SE10      30.10F

$$
MOZ051-052-059>065-281100-
...EAST CENTRAL MISSOURI...

CITY           SKY/WX    TMP DP  RH WIND       PRES   REMARKS
ST LOUIS INTL  CLEAR     30  25  81 SE10      30.23F WCI  21
SPIRIT OF STL  CLEAR     29  25  85 E5        30.22F WCI  24
ST CHARLES     CLEAR     28  26  92 E8        30.24F WCI  20

$$
MOZ072>076-082>087-097>100-106>115-281100-
...SOUTH CENTRAL AND SOUTHEAST MISSOURI...

CITY           SKY/WX    TMP DP  RH WIND       PRES   REMARKS
CAPE GIRARDEAU CLEAR     27  25  92 E3        30.27S
FARMINGTON     CLEAR     27  25  93 MISG      30.24F
POPLAR BLUFF   CLEAR     31  27  85 NE3       30.25S
WEST PLAINS    CLEAR     34  28  79 SE7       30.19S WCI  28

$$



USA.gov is the U.S. government's official web portal to all federal, state and local government web resources and services.